Terminal Aerodrome Forecast
Issued by NWS Austin/San Antonio, TX

Home | Current Version | Previous Version | Text Only | Print | Product List | Glossary On
Versions: 1 2 3 4 5 6 7 8 9 10 11 12
000
FTUS44 KEWX 041726
TAFDRT
TAF
KDRT 041726Z 0418/0518 14011KT P6SM FEW120 SCT250
     FM050100 10009KT P6SM SCT250
     FM051500 14012KT P6SM SKC=

USA.gov is the U.S. government's official web portal to all federal, state and local government web resources and services.